{"data":{"norad_id":67991,"epoch":"2026-09-19T16:53:30.023808Z","epoch_age_seconds":128454,"freshness":"FRESH","line1":"1 67991U 26039F   26262.70381972  .00012188  00000+0  45149-3 0  9992","line2":"2 67991  43.0065  33.4180 0003213 276.7079  83.3407 15.27594186 31375","mean_motion":15.27594186,"eccentricity":0.0003213,"inclination_deg":43.0065,"raan_deg":33.418,"arg_perigee_deg":276.7079,"mean_anomaly_deg":83.3407,"bstar":0.00045149,"rev_number":3137,"period_min":94.2658733057,"perigee_km":480.80213293641,"apogee_km":485.21110382558,"semimajor_km":6861.143618381,"source":"CELESTRAK","updated_at":"2026-09-20T09:00:43.735590Z"}}